,,Stat5,,Stat1,,Stat2,,Stat3,,Stat4,,Wind1,,Wind1
time,status,PA1M_AVG,status,PR1M_SUM,status,RH1M_AVG,status,SR1M_AVG,status,TA1M_AVG,status,W1dAve1m,status,W1sAve1m
2000-04-07, 00:00:00,VALID,917.956,VALID,0,VALID,97.7432,VALID,-0.0679233,VALID,18.6625,VALID,212,VALID,0
2000-04-07, 00:01:00,VALID,917.938,VALID,0,VALID,97.6185,VALID,-0.0679233,VALID,18.6459,VALID,212,VALID,0
2000-04-07, 00:02:00,VALID,917.953,VALID,0,VALID,97.6847,VALID,-0.0339617,VALID,18.6591,VALID,212,VALID,0
2000-04-07, 00:03:00,VALID,917.948,VALID,0,VALID,97.8449,VALID,0,VALID,18.6683,VALID,212,VALID,0
2000-04-07, 00:04:00,VALID,917.935,VALID,0,VALID,97.8144,VALID,-0.0509425,VALID,18.6591,VALID,212,VALID,0
2000-04-07, 00:05:00,VALID,917.929,VALID,0,VALID,97.8004,VALID,-0.0169808,VALID,18.6695,VALID,212,VALID,0
2000-04-07, 00:06:00,VALID,917.933,VALID,0,VALID,97.9326,VALID,-0.0169808,VALID,18.6852,VALID,212,VALID,0
2000-04-07, 00:07:00,VALID,917.911,VALID,0,VALID,98.0178,VALID,-0.0679233,VALID,18.6944,VALID,212,VALID,0
2000-04-07, 00:08:00,VALID,917.918,VALID,0,VALID,98.262,VALID,-0.0509425,VALID,18.7463,VALID,212,VALID,0
2000-04-07, 00:09:00,VALID,917.919,VALID,0,VALID,98.4781,VALID,-0.0339617,VALID,18.8017,VALID,212,VALID,0
2000-04-07, 00:10:00,VALID,917.934,VALID,0,VALID,98.6142,VALID,-0.0339617,VALID,18.837,VALID,212,VALID,0
2000-04-07, 00:11:00,VALID,917.924,VALID,0,VALID,98.6867,VALID,-0.0679233,VALID,18.8695,VALID,212,VALID,0
2000-04-07, 00:12:00,VALID,917.921,VALID,0,VALID,98.7312,VALID,-0.0679233,VALID,18.8889,VALID,212,VALID,0
2000-04-07, 00:13:00,VALID,917.92,VALID,0,VALID,98.7681,VALID,-0.0339617,VALID,18.8953,VALID,212,VALID,0
2000-04-07, 00:14:00,VALID,917.908,VALID,0,VALID,98.81,VALID,-0.0339617,VALID,18.9177,VALID,212,VALID,0
2000-04-07, 00:15:00,VALID,917.91,VALID,0,VALID,98.8584,VALID,-0.0339617,VALID,18.9239,VALID,212,VALID,0
2000-04-07, 00:16:00,VALID,917.927,VALID,0,VALID,98.9499,VALID,-0.0679233,VALID,18.9465,VALID,212,VALID,0
2000-04-07, 00:17:00,VALID,917.936,VALID,0,VALID,99.0059,VALID,-0.0679233,VALID,18.986,VALID,212,VALID,0
2000-04-07, 00:18:00,VALID,917.943,VALID,0,VALID,99.0122,VALID,-0.101885,VALID,18.9987,VALID,212,VALID,0
2000-04-07, 00:19:00,VALID,917.956,VALID,0,VALID,98.9957,VALID,-0.0849042,VALID,19.0084,VALID,212,VALID,0
2000-04-07, 00:20:00,VALID,917.964,VALID,0,VALID,99.0186,VALID,-0.0339617,VALID,19.0245,VALID,212,VALID,0
2000-04-07, 00:21:00,VALID,917.983,VALID,0,VALID,99.0555,VALID,-0.0509425,VALID,19.0693,VALID,212,VALID,0
2000-04-07, 00:22:00,VALID,917.984,VALID,0,VALID,98.7185,VALID,-0.0509425,VALID,18.9145,VALID,212,VALID,0
2000-04-07, 00:23:00,VALID,917.984,VALID,0,VALID,98.6282,VALID,-0.0339617,VALID,18.8494,VALID,212,VALID,0
2000-04-07, 00:24:00,VALID,917.987,VALID,0,VALID,98.8456,VALID,-0.0169808,VALID,18.9433,VALID,212,VALID,0
2000-04-07, 00:25:00,VALID,917.98,VALID,0,VALID,98.7846,VALID,-0.0169808,VALID,18.914,VALID,212,VALID,0
2000-04-07, 00:26:00,VALID,917.965,VALID,0,VALID,98.7426,VALID,-0.0509425,VALID,18.8951,VALID,212,VALID,0
2000-04-07, 00:27:00,VALID,917.979,VALID,0,VALID,98.7414,VALID,-0.0169808,VALID,18.9016,VALID,212,VALID,0
2000-04-07, 00:28:00,VALID,917.963,VALID,0,VALID,98.7426,VALID,-0.0339617,VALID,18.8882,VALID,212,VALID,0
2000-04-07, 00:29:00,VALID,917.969,VALID,0,VALID,98.7503,VALID,-0.0169808,VALID,18.8882,VALID,212,VALID,0
2000-04-07, 00:30:00,VALID,917.969,VALID,0,VALID,98.7566,VALID,0,VALID,18.8812,VALID,212,VALID,0
2000-04-07, 00:31:00,VALID,917.959,VALID,0,VALID,98.7604,VALID,-0.0169808,VALID,18.8748,VALID,212,VALID,0
2000-04-07, 00:32:00,VALID,917.962,VALID,0,VALID,98.7821,VALID,-0.0169808,VALID,18.8979,VALID,212,VALID,0
2000-04-07, 00:33:00,VALID,917.941,VALID,0,VALID,98.8291,VALID,-0.0169808,VALID,18.9038,VALID,212,VALID,0
2000-04-07, 00:34:00,VALID,917.929,VALID,0,VALID,98.9919,VALID,0,VALID,18.9629,VALID,212,VALID,0
2000-04-07, 00:35:00,VALID,917.916,VALID,0,VALID,99.086,VALID,0,VALID,19.0174,VALID,212,VALID,0
2000-04-07, 00:36:00,VALID,917.913,VALID,0,VALID,99.0644,VALID,0,VALID,19.0497,VALID,212,VALID,0
2000-04-07, 00:37:00,VALID,917.901,VALID,0,VALID,99.0135,VALID,-0.0339617,VALID,19.0561,VALID,212,VALID,0
2000-04-07, 00:38:00,VALID,917.914,VALID,0,VALID,98.6943,VALID,-0.0169808,VALID,18.9528,VALID,212,VALID,0
2000-04-07, 00:39:00,VALID,917.897,VALID,0,VALID,98.5366,VALID,-0.0679233,VALID,18.8466,VALID,211,VALID,0
2000-04-07, 00:40:00,VALID,917.893,VALID,0,VALID,98.5659,VALID,-0.0509425,VALID,18.8014,VALID,195,VALID,0
2000-04-07, 00:41:00,VALID,917.873,VALID,0,VALID,98.482,VALID,-0.0339617,VALID,18.756,VALID,173,VALID,0
2000-04-07, 00:42:00,VALID,917.86,VALID,0,VALID,98.4082,VALID,-0.0169808,VALID,18.7043,VALID,173,VALID,0
2000-04-07, 00:43:00,VALID,917.861,VALID,0,VALID,98.454,VALID,0,VALID,18.6658,VALID,173,VALID,0
2000-04-07, 00:44:00,VALID,917.848,VALID,0,VALID,98.6256,VALID,-0.0169808,VALID,18.6556,VALID,173,VALID,0
2000-04-07, 00:45:00,VALID,917.834,VALID,0,VALID,98.8202,VALID,0,VALID,18.6914,VALID,171,VALID,0
2000-04-07, 00:46:00,VALID,917.836,VALID,0,VALID,98.9346,VALID,0,VALID,18.7011,VALID,171,VALID,0
2000-04-07, 00:47:00,VALID,917.801,VALID,0,VALID,99.086,VALID,0,VALID,18.7428,VALID,171,VALID,0
2000-04-07, 00:48:00,VALID,917.776,VALID,0,VALID,98.983,VALID,0,VALID,18.7197,VALID,171,VALID,0
2000-04-07, 00:49:00,VALID,917.766,VALID,0,VALID,98.9181,VALID,0,VALID,18.6914,VALID,171,VALID,0
2000-04-07, 00:50:00,VALID,917.751,VALID,0,VALID,98.9258,VALID,-0.0169808,VALID,18.6814,VALID,168,VALID,0
2000-04-07, 00:51:00,VALID,917.737,VALID,0,VALID,98.7999,VALID,-0.0339617,VALID,18.6298,VALID,168,VALID,0
2000-04-07, 00:52:00,VALID,917.715,VALID,0,VALID,98.693,VALID,-0.0169808,VALID,18.5587,VALID,168,VALID,0
2000-04-07, 00:53:00,VALID,917.706,VALID,0,VALID,98.7592,VALID,-0.0169808,VALID,18.5654,VALID,168,VALID,0
2000-04-07, 00:54:00,VALID,917.703,VALID,0,VALID,98.8762,VALID,0,VALID,18.5972,VALID,168,VALID,0
2000-04-07, 00:55:00,VALID,917.69,VALID,0,VALID,98.9003,VALID,-0.0169808,VALID,18.6005,VALID,168,VALID,0
2000-04-07, 00:56:00,VALID,917.694,VALID,0,VALID,98.8863,VALID,-0.0169808,VALID,18.5878,VALID,168,VALID,0
2000-04-07, 00:57:00,VALID,917.692,VALID,0,VALID,98.8838,VALID,-0.0339617,VALID,18.5945,VALID,168,VALID,0
2000-04-07, 00:58:00,VALID,917.691,VALID,0,VALID,98.7719,VALID,-0.0169808,VALID,18.5622,VALID,168,VALID,0
2000-04-07, 00:59:00,VALID,917.697,VALID,0,VALID,98.7693,VALID,-0.0169808,VALID,18.5659,VALID,158,VALID,0
2000-04-07, 01:00:00,VALID,917.707,VALID,0,VALID,99.0313,VALID,-0.0169808,VALID,18.6588,VALID,146,VALID,0
2000-04-07, 01:01:00,VALID,917.714,VALID,0,VALID,99.1496,VALID,0,VALID,18.7297,VALID,143,VALID,0
2000-04-07, 01:02:00,VALID,917.723,VALID,0,VALID,99.208,VALID,0,VALID,18.7853,VALID,137,VALID,0
2000-04-07, 01:03:00,VALID,917.717,VALID,0,VALID,99.2284,VALID,-0.0169808,VALID,18.8238,VALID,137,VALID,0
2000-04-07, 01:04:00,VALID,917.715,VALID,0,VALID,99.2411,VALID,0,VALID,18.8658,VALID,137,VALID,0
2000-04-07, 01:05:00,VALID,917.708,VALID,0,VALID,99.2297,VALID,-0.0339617,VALID,18.8819,VALID,137,VALID,0
2000-04-07, 01:06:00,VALID,917.707,VALID,0,VALID,99.208,VALID,-0.0339617,VALID,18.8953,VALID,137,VALID,0
2000-04-07, 01:07:00,VALID,917.696,VALID,0,VALID,99.1763,VALID,-0.0169808,VALID,18.8815,VALID,137,VALID,0
2000-04-07, 01:08:00,VALID,917.69,VALID,0,VALID,99.1394,VALID,0,VALID,18.8916,VALID,137,VALID,0
2000-04-07, 01:09:00,VALID,917.681,VALID,0,VALID,99.1114,VALID,-0.0169808,VALID,18.8819,VALID,137,VALID,0
2000-04-07, 01:10:00,VALID,917.685,VALID,0,VALID,99.0936,VALID,0,VALID,18.872,VALID,137,VALID,0
2000-04-07, 01:11:00,VALID,917.687,VALID,0,VALID,99.0682,VALID,0,VALID,18.8685,VALID,137,VALID,0
2000-04-07, 01:12:00,VALID,917.68,VALID,0,VALID,99.0466,VALID,0,VALID,18.872,VALID,137,VALID,0
2000-04-07, 01:13:00,VALID,917.662,VALID,0,VALID,98.9944,VALID,0.0169808,VALID,18.8524,VALID,137,VALID,0
2000-04-07, 01:14:00,VALID,917.66,VALID,0,VALID,98.9982,VALID,0.0169808,VALID,18.8685,VALID,137,VALID,0
2000-04-07, 01:15:00,VALID,917.631,VALID,0,VALID,98.9893,VALID,0.0169808,VALID,18.8755,VALID,137,VALID,0
2000-04-07, 01:16:00,VALID,917.618,VALID,0,VALID,99.0046,VALID,0,VALID,18.8889,VALID,137,VALID,0
2000-04-07, 01:17:00,VALID,917.6,VALID,0,VALID,98.9753,VALID,0,VALID,18.8688,VALID,137,VALID,0
2000-04-07, 01:18:00,VALID,917.581,VALID,0,VALID,98.9397,VALID,-0.0169808,VALID,18.8556,VALID,137,VALID,0
2000-04-07, 01:19:00,VALID,917.573,VALID,0,VALID,99.0211,VALID,-0.0339617,VALID,18.8951,VALID,137,VALID,0
2000-04-07, 01:20:00,VALID,917.573,VALID,0,VALID,99.0402,VALID,0.0169808,VALID,18.9237,VALID,137,VALID,0
2000-04-07, 01:21:00,VALID,917.572,VALID,0,VALID,98.9639,VALID,0,VALID,18.9112,VALID,137,VALID,0
2000-04-07, 01:22:00,VALID,917.578,VALID,0,VALID,98.824,VALID,0.0169808,VALID,18.872,VALID,137,VALID,0
2000-04-07, 01:23:00,VALID,917.585,VALID,0,VALID,98.6778,VALID,0,VALID,18.833,VALID,137,VALID,0
2000-04-07, 01:24:00,VALID,917.572,VALID,0,VALID,98.557,VALID,0,VALID,18.8111,VALID,137,VALID,0
2000-04-07, 01:25:00,VALID,917.571,VALID,0,VALID,98.5125,VALID,0,VALID,18.7945,VALID,137,VALID,0
2000-04-07, 01:26:00,VALID,917.553,VALID,0,VALID,98.5061,VALID,0,VALID,18.7915,VALID,137,VALID,0
2000-04-07, 01:27:00,VALID,917.552,VALID,0,VALID,98.482,VALID,-0.0169808,VALID,18.7917,VALID,137,VALID,0
2000-04-07, 01:28:00,VALID,917.549,VALID,0,VALID,98.4756,VALID,0.0169808,VALID,18.788,VALID,137,VALID,0
2000-04-07, 01:29:00,VALID,917.551,VALID,0,VALID,98.4578,VALID,0,VALID,18.7883,VALID,137,VALID,0
2000-04-07, 01:30:00,VALID,917.538,VALID,0,VALID,98.4705,VALID,-0.0509425,VALID,18.7982,VALID,177,VALID,0
2000-04-07, 01:31:00,VALID,917.526,VALID,0,VALID,98.4591,VALID,-0.0169808,VALID,18.8106,VALID,234,VALID,0
2000-04-07, 01:32:00,VALID,917.516,VALID,0,VALID,98.3573,VALID,0,VALID,18.8014,VALID,234,VALID,0
2000-04-07, 01:33:00,VALID,917.503,VALID,0,VALID,98.3573,VALID,-0.0169808,VALID,18.8014,VALID,234,VALID,0
2000-04-07, 01:34:00,VALID,917.492,VALID,0,VALID,98.4769,VALID,0,VALID,18.8238,VALID,234,VALID,0
2000-04-07, 01:35:00,VALID,917.481,VALID,0,VALID,98.4718,VALID,-0.0169808,VALID,18.8305,VALID,234,VALID,0
2000-04-07, 01:36:00,VALID,917.465,VALID,0,VALID,98.3955,VALID,0,VALID,18.8178,VALID,234,VALID,0
2000-04-07, 01:37:00,VALID,917.446,VALID,0,VALID,98.4044,VALID,0,VALID,18.8173,VALID,234,VALID,0
2000-04-07, 01:38:00,VALID,917.437,VALID,0,VALID,98.2696,VALID,0,VALID,18.7952,VALID,234,VALID,0
2000-04-07, 01:39:00,VALID,917.438,VALID,0,VALID,98.1119,VALID,0,VALID,18.7428,VALID,234,VALID,0
2000-04-07, 01:40:00,VALID,917.44,VALID,0,VALID,98.0636,VALID,0,VALID,18.7207,VALID,234,VALID,0
2000-04-07, 01:41:00,VALID,917.427,VALID,0,VALID,98.131,VALID,0,VALID,18.7045,VALID,234,VALID,0
2000-04-07, 01:42:00,VALID,917.423,VALID,0,VALID,98.2302,VALID,0,VALID,18.7013,VALID,234,VALID,0
2000-04-07, 01:43:00,VALID,917.415,VALID,0,VALID,98.2429,VALID,0.0169808,VALID,18.7011,VALID,234,VALID,0
2000-04-07, 01:44:00,VALID,917.401,VALID,0,VALID,98.3103,VALID,0,VALID,18.7008,VALID,230,VALID,0
2000-04-07, 01:45:00,VALID,917.392,VALID,0,VALID,98.2849,VALID,0,VALID,18.7115,VALID,230,VALID,0
2000-04-07, 01:46:00,VALID,917.382,VALID,0,VALID,98.2315,VALID,0,VALID,18.6881,VALID,229,VALID,0
2000-04-07, 01:47:00,VALID,917.38,VALID,0,VALID,98.1984,VALID,0,VALID,18.6881,VALID,229,VALID,0
2000-04-07, 01:48:00,VALID,917.371,VALID,0,VALID,98.1297,VALID,0,VALID,18.6785,VALID,216,VALID,0
2000-04-07, 01:49:00,VALID,917.371,VALID,0,VALID,98.0687,VALID,0,VALID,18.6695,VALID,211,VALID,0
2000-04-07, 01:50:00,VALID,917.357,VALID,0,VALID,98.014,VALID,0,VALID,18.6529,VALID,209,VALID,0
2000-04-07, 01:51:00,VALID,917.352,VALID,0,VALID,97.9848,VALID,0,VALID,18.6332,VALID,209,VALID,0
2000-04-07, 01:52:00,VALID,917.337,VALID,0,VALID,97.9975,VALID,-0.0339617,VALID,18.6302,VALID,209,VALID,0
2000-04-07, 01:53:00,VALID,917.332,VALID,0,VALID,98.014,VALID,-0.0169808,VALID,18.6143,VALID,208,VALID,0
2000-04-07, 01:54:00,VALID,917.318,VALID,0,VALID,98.0814,VALID,0,VALID,18.6146,VALID,207,VALID,0
2000-04-07, 01:55:00,VALID,917.302,VALID,0,VALID,98.0992,VALID,0,VALID,18.5855,VALID,187,VALID,0
2000-04-07, 01:56:00,VALID,917.299,VALID,0,VALID,98.178,VALID,-0.0169808,VALID,18.5656,VALID,186,VALID,0
2000-04-07, 01:57:00,VALID,917.288,VALID,0,VALID,98.2772,VALID,0,VALID,18.5562,VALID,190,VALID,0
2000-04-07, 01:58:00,VALID,917.288,VALID,0,VALID,98.3701,VALID,0,VALID,18.5366,VALID,211,VALID,0
2000-04-07, 01:59:00,VALID,917.298,VALID,0,VALID,98.5977,VALID,0,VALID,18.5656,VALID,211,VALID,0
2000-04-07, 02:00:00,VALID,917.286,VALID,0,VALID,98.7414,VALID,0.0169808,VALID,18.5975,VALID,215,VALID,0
2000-04-07, 02:01:00,VALID,917.291,VALID,0,VALID,98.8342,VALID,-0.0169808,VALID,18.6339,VALID,234,VALID,0
2000-04-07, 02:02:00,VALID,917.276,VALID,0,VALID,98.9563,VALID,0,VALID,18.6722,VALID,236,VALID,0
2000-04-07, 02:03:00,VALID,917.273,VALID,0,VALID,99.0822,VALID,-0.0169808,VALID,18.7274,VALID,237,VALID,0
2000-04-07, 02:04:00,VALID,917.264,VALID,0,VALID,99.1343,VALID,0,VALID,18.7791,VALID,239,VALID,0.370117
2000-04-07, 02:05:00,VALID,917.251,VALID,0,VALID,99.1572,VALID,0,VALID,18.8081,VALID,233,VALID,0.307031
2000-04-07, 02:06:00,VALID,917.229,VALID,0,VALID,99.1178,VALID,-0.0339617,VALID,18.8146,VALID,224,VALID,0.200521
2000-04-07, 02:07:00,VALID,917.214,VALID,0,VALID,99.0923,VALID,0,VALID,18.788,VALID,227,VALID,0.228824
2000-04-07, 02:08:00,VALID,917.193,VALID,0,VALID,99.119,VALID,0,VALID,18.8047,VALID,233,VALID,0.578516
2000-04-07, 02:09:00,VALID,917.188,VALID,0,VALID,99.0961,VALID,0,VALID,18.8014,VALID,236,VALID,0.564062
2000-04-07, 02:10:00,VALID,917.172,VALID,0,VALID,99.0911,VALID,0,VALID,18.7779,VALID,227,VALID,0.515425
2000-04-07, 02:11:00,VALID,917.161,VALID,0,VALID,99.1343,VALID,-0.0339617,VALID,18.8044,VALID,224,VALID,0.202919
2000-04-07, 02:12:00,VALID,917.155,VALID,0,VALID,99.1254,VALID,-0.0169808,VALID,18.8081,VALID,224,VALID,0
2000-04-07, 02:13:00,VALID,917.134,VALID,0,VALID,99.1152,VALID,0,VALID,18.8076,VALID,224,VALID,0.0455078
2000-04-07, 02:14:00,VALID,917.126,VALID,0,VALID,99.1254,VALID,-0.0169808,VALID,18.7945,VALID,224,VALID,0.114784
2000-04-07, 02:15:00,VALID,917.121,VALID,0,VALID,99.119,VALID,-0.0169808,VALID,18.8114,VALID,220,VALID,0.0583882
2000-04-07, 02:16:00,VALID,917.106,VALID,0,VALID,99.1228,VALID,0,VALID,18.8044,VALID,224,VALID,0.169922
2000-04-07, 02:17:00,VALID,917.112,VALID,0,VALID,99.0974,VALID,-0.0339617,VALID,18.8148,VALID,226,VALID,0
2000-04-07, 02:18:00,VALID,917.083,VALID,0,VALID,99.0491,VALID,-0.0169808,VALID,18.7954,VALID,225,VALID,0
2000-04-07, 02:19:00,VALID,917.064,VALID,0,VALID,99.0186,VALID,0,VALID,18.7724,VALID,225,VALID,0
2000-04-07, 02:20:00,VALID,917.053,VALID,0,VALID,98.9919,VALID,0.0169808,VALID,18.7624,VALID,225,VALID,0
2000-04-07, 02:21:00,VALID,917.032,VALID,0,VALID,98.9944,VALID,0,VALID,18.7557,VALID,225,VALID,0
2000-04-07, 02:22:00,VALID,917.003,VALID,0,VALID,99.0402,VALID,-0.0169808,VALID,18.7689,VALID,213,VALID,0
2000-04-07, 02:23:00,VALID,916.99,VALID,0,VALID,99.0618,VALID,0,VALID,18.798,VALID,211,VALID,0
2000-04-07, 02:24:00,VALID,916.969,VALID,0,VALID,98.9652,VALID,0.0169808,VALID,18.7786,VALID,211,VALID,0
2000-04-07, 02:25:00,VALID,916.951,VALID,0,VALID,98.8863,VALID,0,VALID,18.756,VALID,211,VALID,0
2000-04-07, 02:26:00,VALID,916.928,VALID,0,VALID,98.8711,VALID,0.0169808,VALID,18.7366,VALID,211,VALID,0
2000-04-07, 02:27:00,VALID,916.916,VALID,0,VALID,98.8749,VALID,0,VALID,18.7368,VALID,211,VALID,0
2000-04-07, 02:28:00,VALID,916.905,VALID,0,VALID,98.8622,VALID,-0.0169808,VALID,18.7202,VALID,211,VALID,0
2000-04-07, 02:29:00,VALID,916.892,VALID,0,VALID,98.8367,VALID,0,VALID,18.6939,VALID,211,VALID,0
2000-04-07, 02:30:00,VALID,916.882,VALID,0,VALID,98.852,VALID,0,VALID,18.7011,VALID,211,VALID,0
2000-04-07, 02:31:00,VALID,916.867,VALID,0,VALID,98.796,VALID,0,VALID,18.6653,VALID,211,VALID,0
2000-04-07, 02:32:00,VALID,916.856,VALID,0,VALID,98.6206,VALID,0,VALID,18.6099,VALID,211,VALID,0
2000-04-07, 02:33:00,VALID,916.844,VALID,0,VALID,98.4743,VALID,-0.0169808,VALID,18.5781,VALID,211,VALID,0
2000-04-07, 02:34:00,VALID,916.837,VALID,0,VALID,98.3014,VALID,0,VALID,18.513,VALID,192,VALID,0
2000-04-07, 02:35:00,VALID,916.833,VALID,0,VALID,98.2022,VALID,0,VALID,18.4814,VALID,163,VALID,0
2000-04-07, 02:36:00,VALID,916.838,VALID,0,VALID,98.2022,VALID,0.0169808,VALID,18.4452,VALID,163,VALID,0
2000-04-07, 02:37:00,VALID,916.823,VALID,0,VALID,98.2594,VALID,0,VALID,18.4558,VALID,163,VALID,0
2000-04-07, 02:38:00,VALID,916.828,VALID,0,VALID,98.3929,VALID,-0.0339617,VALID,18.4551,VALID,163,VALID,0
2000-04-07, 02:39:00,VALID,916.835,VALID,0,VALID,98.3777,VALID,-0.0169808,VALID,18.4528,VALID,163,VALID,0
2000-04-07, 02:40:00,VALID,916.847,VALID,0,VALID,98.2721,VALID,0,VALID,18.4298,VALID,161,VALID,0
2000-04-07, 02:41:00,VALID,916.854,VALID,0,VALID,98.2493,VALID,0,VALID,18.4039,VALID,148,VALID,0
2000-04-07, 02:42:00,VALID,916.857,VALID,0,VALID,98.3103,VALID,0,VALID,18.3843,VALID,147,VALID,0
2000-04-07, 02:43:00,VALID,916.87,VALID,0,VALID,98.3675,VALID,0,VALID,18.3779,VALID,147,VALID,0
2000-04-07, 02:44:00,VALID,916.885,VALID,0,VALID,98.4235,VALID,0,VALID,18.3679,VALID,147,VALID,0
2000-04-07, 02:45:00,VALID,916.889,VALID,0,VALID,98.5239,VALID,-0.0169808,VALID,18.3912,VALID,147,VALID,0
2000-04-07, 02:46:00,VALID,916.888,VALID,0,VALID,98.6473,VALID,-0.0169808,VALID,18.4072,VALID,147,VALID,0
2000-04-07, 02:47:00,VALID,916.881,VALID,0,VALID,98.7325,VALID,-0.0169808,VALID,18.4233,VALID,147,VALID,0
2000-04-07, 02:48:00,VALID,916.875,VALID,0,VALID,98.8266,VALID,-0.0339617,VALID,18.4492,VALID,147,VALID,0
2000-04-07, 02:49:00,VALID,916.88,VALID,0,VALID,98.9397,VALID,-0.0169808,VALID,18.5013,VALID,147,VALID,0
2000-04-07, 02:50:00,VALID,916.852,VALID,0,VALID,99.0084,VALID,-0.0169808,VALID,18.5262,VALID,147,VALID,0
2000-04-07, 02:51:00,VALID,916.859,VALID,0,VALID,99.0491,VALID,0,VALID,18.552,VALID,147,VALID,0
2000-04-07, 02:52:00,VALID,916.848,VALID,0,VALID,98.9703,VALID,-0.0169808,VALID,18.5594,VALID,147,VALID,0
2000-04-07, 02:53:00,VALID,916.853,VALID,0,VALID,98.9092,VALID,-0.0339617,VALID,18.546,VALID,147,VALID,0
2000-04-07, 02:54:00,VALID,916.837,VALID,0,VALID,98.9703,VALID,-0.0679233,VALID,18.5818,VALID,148,VALID,0
2000-04-07, 02:55:00,VALID,916.837,VALID,0,VALID,98.9207,VALID,-0.0509425,VALID,18.5986,VALID,163,VALID,0
2000-04-07, 02:56:00,VALID,916.821,VALID,0,VALID,98.8482,VALID,-0.0169808,VALID,18.5885,VALID,176,VALID,0
2000-04-07, 02:57:00,VALID,916.803,VALID,0,VALID,98.8482,VALID,-0.0169808,VALID,18.5887,VALID,178,VALID,0
2000-04-07, 02:58:00,VALID,916.801,VALID,0,VALID,98.8355,VALID,-0.0339617,VALID,18.592,VALID,178,VALID,0
2000-04-07, 02:59:00,VALID,916.782,VALID,0,VALID,98.7871,VALID,-0.0509425,VALID,18.5723,VALID,180,VALID,0
2000-04-07, 03:00:00,VALID,916.786,VALID,0,VALID,98.7935,VALID,-0.0169808,VALID,18.5723,VALID,180,VALID,0
2000-04-07, 03:01:00,VALID,916.768,VALID,0,VALID,98.7795,VALID,-0.0339617,VALID,18.5562,VALID,180,VALID,0
2000-04-07, 03:02:00,VALID,916.778,VALID,0,VALID,98.693,VALID,-0.0169808,VALID,18.52,VALID,180,VALID,0
2000-04-07, 03:03:00,VALID,916.769,VALID,0,VALID,98.6435,VALID,-0.0169808,VALID,18.5142,VALID,180,VALID,0
2000-04-07, 03:04:00,VALID,916.761,VALID,0,VALID,98.6307,VALID,0,VALID,18.4847,VALID,181,VALID,0
2000-04-07, 03:05:00,VALID,916.755,VALID,0,VALID,98.5824,VALID,0,VALID,18.4718,VALID,203,VALID,0
2000-04-07, 03:06:00,VALID,916.759,VALID,0,VALID,98.6015,VALID,-0.0169808,VALID,18.4655,VALID,212,VALID,0
2000-04-07, 03:07:00,VALID,916.759,VALID,0,VALID,98.6803,VALID,0,VALID,18.4688,VALID,213,VALID,0
2000-04-07, 03:08:01,VALID,916.75,VALID,0,VALID,98.8037,VALID,-0.0339617,VALID,18.4879,VALID,214,VALID,0
2000-04-07, 03:09:00,VALID,916.748,VALID,0,VALID,98.9041,VALID,0,VALID,18.5103,VALID,214,VALID,0
2000-04-07, 03:10:00,VALID,916.736,VALID,0,VALID,98.9703,VALID,0,VALID,18.5597,VALID,214,VALID,0
2000-04-07, 03:11:00,VALID,916.726,VALID,0,VALID,99.0173,VALID,-0.0169808,VALID,18.5691,VALID,214,VALID,0
2000-04-07, 03:12:00,VALID,916.716,VALID,0,VALID,99.0224,VALID,-0.0169808,VALID,18.5887,VALID,214,VALID,0
2000-04-07, 03:13:00,VALID,916.716,VALID,0,VALID,99.0198,VALID,0,VALID,18.5788,VALID,214,VALID,0
2000-04-07, 03:14:00,VALID,916.701,VALID,0,VALID,99.0198,VALID,-0.0339617,VALID,18.5786,VALID,214,VALID,0
2000-04-07, 03:15:00,VALID,916.702,VALID,0,VALID,99.0135,VALID,-0.0339617,VALID,18.5786,VALID,214,VALID,0
2000-04-07, 03:16:01,VALID,916.686,VALID,0,VALID,99.0237,VALID,-0.0509425,VALID,18.5656,VALID,214,VALID,0
2000-04-07, 03:17:00,VALID,916.694,VALID,0,VALID,99.0605,VALID,-0.0169808,VALID,18.5689,VALID,214,VALID,0
2000-04-07, 03:18:00,VALID,916.68,VALID,0,VALID,99.1152,VALID,0,VALID,18.5818,VALID,214,VALID,0
2000-04-07, 03:19:00,VALID,916.677,VALID,0,VALID,99.1279,VALID,0,VALID,18.591,VALID,214,VALID,0
2000-04-07, 03:20:01,VALID,916.665,VALID,0,VALID,99.133,VALID,0,VALID,18.6012,VALID,214,VALID,0
2000-04-07, 03:21:00,VALID,916.661,VALID,0,VALID,99.1203,VALID,-0.0169808,VALID,18.6016,VALID,214,VALID,0
2000-04-07, 03:22:00,VALID,916.64,VALID,0,VALID,99.1076,VALID,-0.0339617,VALID,18.5892,VALID,214,VALID,0
2000-04-07, 03:23:00,VALID,916.625,VALID,0,VALID,99.1038,VALID,-0.0339617,VALID,18.5629,VALID,214,VALID,0
2000-04-07, 03:24:00,VALID,916.62,VALID,0,VALID,99.0936,VALID,-0.0339617,VALID,18.5497,VALID,214,VALID,0
2000-04-07, 03:25:00,VALID,916.604,VALID,0,VALID,99.1038,VALID,0,VALID,18.5433,VALID,214,VALID,0
2000-04-07, 03:26:00,VALID,916.604,VALID,0,VALID,99.0809,VALID,0,VALID,18.5239,VALID,214,VALID,0
2000-04-07, 03:27:00,VALID,916.619,VALID,0,VALID,99.0758,VALID,0,VALID,18.5075,VALID,214,VALID,0
2000-04-07, 03:28:01,VALID,916.628,VALID,0,VALID,99.0834,VALID,-0.0169808,VALID,18.5077,VALID,214,VALID,0
2000-04-07, 03:29:00,VALID,916.631,VALID,0,VALID,99.086,VALID,0,VALID,18.5142,VALID,214,VALID,0
2000-04-07, 03:30:00,VALID,916.64,VALID,0,VALID,99.0733,VALID,0,VALID,18.508,VALID,214,VALID,0
2000-04-07, 03:31:00,VALID,916.639,VALID,0,VALID,99.0682,VALID,0,VALID,18.4951,VALID,214,VALID,0
2000-04-07, 03:32:01,VALID,916.651,VALID,0,VALID,99.0771,VALID,0,VALID,18.5142,VALID,214,VALID,0
2000-04-07, 03:33:00,VALID,916.655,VALID,0,VALID,99.0478,VALID,0,VALID,18.4937,VALID,214,VALID,0
2000-04-07, 03:34:00,VALID,916.665,VALID,0,VALID,99.0733,VALID,0.0169808,VALID,18.5174,VALID,214,VALID,0
2000-04-07, 03:35:00,VALID,916.675,VALID,0,VALID,99.0669,VALID,-0.0169808,VALID,18.5239,VALID,214,VALID,0
2000-04-07, 03:36:00,VALID,916.681,VALID,0,VALID,99.0211,VALID,0,VALID,18.514,VALID,214,VALID,0
2000-04-07, 03:37:00,VALID,916.698,VALID,0,VALID,98.997,VALID,0,VALID,18.5142,VALID,214,VALID,0
2000-04-07, 03:38:00,VALID,916.71,VALID,0,VALID,99.1038,VALID,-0.0169808,VALID,18.585,VALID,215,VALID,0
2000-04-07, 03:39:00,VALID,916.71,VALID,0,VALID,99.1254,VALID,-0.0169808,VALID,18.6367,VALID,217,VALID,0
2000-04-07, 03:40:01,VALID,916.72,VALID,0,VALID,99.1076,VALID,0,VALID,18.666,VALID,217,VALID,0
2000-04-07, 03:41:00,VALID,916.721,VALID,0,VALID,99.0745,VALID,0,VALID,18.6625,VALID,217,VALID,0
2000-04-07, 03:42:00,VALID,916.738,VALID,0,VALID,98.9995,VALID,-0.0169808,VALID,18.6658,VALID,217,VALID,0
2000-04-07, 03:43:00,VALID,916.75,VALID,0,VALID,98.9436,VALID,0.0169808,VALID,18.6722,VALID,217,VALID,0
2000-04-07, 03:44:01,VALID,916.752,VALID,0,VALID,98.8736,VALID,0,VALID,18.6759,VALID,221,VALID,0
2000-04-07, 03:45:00,VALID,916.755,VALID,0,VALID,98.8253,VALID,0,VALID,18.6695,VALID,223,VALID,0
2000-04-07, 03:46:00,VALID,916.757,VALID,0,VALID,98.8151,VALID,0,VALID,18.6759,VALID,223,VALID,0
2000-04-07, 03:47:00,VALID,916.754,VALID,0,VALID,98.749,VALID,0,VALID,18.6792,VALID,223,VALID,0
2000-04-07, 03:48:00,VALID,916.751,VALID,0,VALID,98.6625,VALID,-0.0169808,VALID,18.6824,VALID,226,VALID,0
2000-04-07, 03:49:00,VALID,916.763,VALID,0,VALID,98.7846,VALID,0,VALID,18.7244,VALID,234,VALID,0
2000-04-07, 03:50:00,VALID,916.752,VALID,0,VALID,98.8393,VALID,0,VALID,18.7433,VALID,234,VALID,0